Weather in Novotroitsk

Russia / Novosibirsk Oblast     55°20′18″N   75°59′40″E
temp.,
°C
wind,
m/s
gust,
m/s
humid.,
%
clouds,
%
prec.,
mm/h
press.,
hPa
HPBL,
m
28 february, sun
sun2801:00−30s349935 0.0 103451
04:00−30sse459938 0.0 103280
07:00−29se479953 0.0 103196
10:00−25se51094100 0.0 1028248
13:00−21ese6993100 0.0 1026286
16:00−19ese61095100 0.1 1023341
19:00−18ese61094100 0.3 1020411
22:00−16e51094100 0.1 1018311
1 march, mon
mon101:00−16e61195100 0.4 1014297
04:00−13ene61195100 0.8 1010331
07:00−12ene71194100 1.9 1008334
10:00−12ene61194100 0.4 1007348
13:00−11ene6995100 1.3 1007353
16:00−11ne5894100 1.1 1007402
19:00−11nne4894100 1.6 1009407
22:00−14nne479593 0.1 1012237
2 march, tue
tue201:00−17n349790 0.1 101451
04:00−19n239892 0.0 101620
07:00−21nne1110095 0.1 101720
10:00−19w019895 0.0 101720
13:00−15sse129197 0.1 1017234
16:00−13s2289100 0.1 1017388
19:00−14s1296100 0.3 101634
22:00−16s229797 0.1 101521
3 march, wed
wed301:00−16s129798 0.3 101520
04:00−16wsw119792 0.2 101420
07:00−17w119796 0.4 101520
10:00−16wsw229692 0.1 101651
13:00−14wsw239182 0.1 1017268
16:00−13sw349197 0.0 1018360
19:00−16ssw349597 0.0 101976
22:00−17s489695 0.0 1019196
4 march, thu
thu401:00−18s499589 0.0 1019215
04:00−16s5994100 0.0 1018263
07:00−16sse5994100 0.0 1017255
10:00−16sse61094100 0.0 1016264
13:00−12sse61192100 0.0 1015321
16:00−10sse71289100 0.0 1013370
19:00−10sse7138992 0.0 1011372
22:00−9sse61292100 0.1 1010393